• En España
  • Lista de países
  • Para 7 días
  • Temperatura del agua
  • Mapa Satelital
  • El tiempo en el mapa
  • Informadores
  • user-avatar
    Iniciar sesión

    Tiempo cada hora Vitebsk

    Hoy, 22 Febrero, Jueves

    Tiempo Temperatura Precipitaciones Viento Presión Humedad
    00:00 -16°C° 0 mm 2 mps 754 mmHg 93%
    01:00 -16°C° 0 mm 2 mps 754 mmHg 94%
    02:00 -17°C° 0 mm 2 mps 754 mmHg 94%
    03:00 -17°C° 0 mm 2 mps 754 mmHg 95%
    04:00 -17°C° 0 mm 2 mps 754 mmHg 95%
    05:00 -18°C° 0 mm 2 mps 754 mmHg 95%
    06:00 -18°C° 0 mm 2 mps 755 mmHg 95%
    07:00 -18°C° 0 mm 2 mps 755 mmHg 95%
    08:00 -18°C° 0 mm 2 mps 755 mmHg 94%
    09:00 -16°C° 0 mm 2 mps 755 mmHg 92%
    10:00 -15°C° 0 mm 2 mps 755 mmHg 89%
    11:00 -13°C° 0 mm 2 mps 756 mmHg 87%
    12:00 -12°C° 0 mm 2 mps 755 mmHg 85%
    13:00 -12°C° 0 mm 2 mps 755 mmHg 82%
    14:00 -10°C° 0 mm 2 mps 755 mmHg 80%
    15:00 -12°C° 0 mm 2 mps 755 mmHg 83%
    16:00 -13°C° 0 mm 2 mps 755 mmHg 85%
    17:00 -12°C° 0 mm 1 mps 755 mmHg 88%
    18:00 -13°C° 0 mm 1 mps 755 mmHg 89%
    19:00 -14°C° 0 mm 1 mps 755 mmHg 90%
    20:00 -15°C° 0 mm 1 mps 755 mmHg 92%
    21:00 -15°C° 0 mm 1 mps 755 mmHg 92%
    22:00 -15°C° 0 mm 1 mps 755 mmHg 93%
    23:00 -16°C° 0 mm 1 mps 755 mmHg 93%

    Mañana, 23 Febrero, Viernes

    Tiempo Temperatura Precipitaciones Viento Presión Humedad
    00:00 -16°C° 0 mm 1 mps 755 mmHg 94%
    01:00 -17°C° 0 mm 1 mps 755 mmHg 95%
    02:00 -17°C° 0 mm 1 mps 755 mmHg 95%
    03:00 -17°C° 0 mm 1 mps 755 mmHg 96%
    04:00 -18°C° 0 mm 1 mps 755 mmHg 96%
    05:00 -18°C° 0 mm 1 mps 755 mmHg 96%
    06:00 -18°C° 0 mm 1 mps 755 mmHg 96%
    07:00 -18°C° 0 mm 1 mps 755 mmHg 96%
    08:00 -18°C° 0 mm 1 mps 755 mmHg 96%
    09:00 -16°C° 0 mm 1 mps 754 mmHg 92%
    10:00 -14°C° 0 mm 1 mps 754 mmHg 88%
    11:00 -12°C° 0 mm 1 mps 754 mmHg 84%
    12:00 -12°C° 0 mm 1 mps 754 mmHg 82%
    13:00 -11°C° 0 mm 1 mps 754 mmHg 80%
    14:00 -10°C° 0 mm 1 mps 753 mmHg 78%
    15:00 -11°C° 0 mm 1 mps 753 mmHg 81%
    16:00 -12°C° 0 mm 1 mps 753 mmHg 84%
    17:00 -13°C° 0 mm 0 mps 753 mmHg 87%
    18:00 -14°C° 0 mm 1 mps 753 mmHg 89%
    19:00 -15°C° 0 mm 1 mps 753 mmHg 90%
    20:00 -15°C° 0 mm 1 mps 753 mmHg 92%
    21:00 -16°C° 0 mm 1 mps 753 mmHg 92%
    22:00 -16°C° 0 mm 1 mps 753 mmHg 93%
    23:00 -16°C° 0 mm 1 mps 753 mmHg 94%

    Pasado mañana, 24 Febrero, Sábado

    Tiempo Temperatura Precipitaciones Viento Presión Humedad
    00:00 -17°C° 0 mm 1 mps 753 mmHg 94%
    01:00 -19°C° 0 mm 2 mps 753 mmHg 95%
    02:00 -19°C° 0 mm 2 mps 753 mmHg 95%
    03:00 -20°C° 0 mm 2 mps 753 mmHg 96%
    04:00 -20°C° 0 mm 2 mps 753 mmHg 96%
    05:00 -20°C° 0 mm 2 mps 753 mmHg 97%
    06:00 -22°C° 0 mm 3 mps 753 mmHg 96%
    07:00 -22°C° 0 mm 3 mps 753 mmHg 96%
    08:00 -22°C° 0 mm 3 mps 754 mmHg 95%
    09:00 -19°C° 0 mm 3 mps 754 mmHg 93%
    10:00 -18°C° 0 mm 3 mps 754 mmHg 90%
    11:00 -16°C° 0 mm 3 mps 755 mmHg 87%
    12:00 -17°C° 0 mm 4 mps 755 mmHg 85%
    13:00 -16°C° 0 mm 4 mps 755 mmHg 84%
    14:00 -15°C° 0 mm 4 mps 754 mmHg 82%
    15:00 -14°C° 0 mm 3 mps 755 mmHg 83%
    16:00 -15°C° 0 mm 3 mps 755 mmHg 85%
    17:00 -15°C° 0 mm 3 mps 755 mmHg 86%
    18:00 -16°C° 0 mm 3 mps 755 mmHg 88%
    19:00 -16°C° 0 mm 3 mps 755 mmHg 90%
    20:00 -16°C° 0 mm 2 mps 755 mmHg 92%
    21:00 -17°C° 0 mm 2 mps 756 mmHg 93%
    22:00 -17°C° 0 mm 2 mps 756 mmHg 94%
    23:00 -18°C° 0 mm 2 mps 756 mmHg 95%

    25 Febrero, Domingo

    Tiempo Temperatura Precipitaciones Viento Presión Humedad
    00:00 -18°C° 0 mm 2 mps 756 mmHg 96%
    01:00 -19°C° 0 mm 2 mps 756 mmHg 96%
    02:00 -19°C° 0 mm 2 mps 756 mmHg 97%
    03:00 -19°C° 0 mm 2 mps 756 mmHg 97%
    04:00 -20°C° 0 mm 2 mps 756 mmHg 97%
    05:00 -20°C° 0 mm 2 mps 756 mmHg 98%
    06:00 -20°C° 0 mm 2 mps 756 mmHg 97%
    07:00 -20°C° 0 mm 2 mps 756 mmHg 97%
    08:00 -20°C° 0 mm 2 mps 756 mmHg 96%
    09:00 -19°C° 0 mm 2 mps 756 mmHg 93%
    10:00 -17°C° 0 mm 2 mps 756 mmHg 90%
    11:00 -16°C° 0 mm 2 mps 756 mmHg 87%
    12:00 -16°C° 0 mm 2 mps 756 mmHg 85%
    13:00 -15°C° 0 mm 2 mps 756 mmHg 83%
    14:00 -14°C° 0 mm 2 mps 756 mmHg 81%
    15:00 -15°C° 0 mm 2 mps 756 mmHg 83%
    16:00 -15°C° 0 mm 2 mps 756 mmHg 85%
    17:00 -16°C° 0 mm 2 mps 755 mmHg 87%
    18:00 -17°C° 0 mm 2 mps 755 mmHg 89%
    19:00 -18°C° 0 mm 2 mps 756 mmHg 91%
    20:00 -19°C° 0 mm 2 mps 756 mmHg 93%
    21:00 -20°C° 0 mm 2 mps 756 mmHg 94%
    22:00 -20°C° 0 mm 2 mps 756 mmHg 95%
    23:00 -21°C° 0 mm 2 mps 756 mmHg 96%

    26 Febrero, Lunes

    Tiempo Temperatura Precipitaciones Viento Presión Humedad
    00:00 -21°C° 0 mm 2 mps 756 mmHg 96%
    01:00 -23°C° 0 mm 2 mps 755 mmHg 96%
    02:00 -23°C° 0 mm 2 mps 755 mmHg 97%
    03:00 -23°C° 0 mm 2 mps 755 mmHg 97%
    04:00 -23°C° 0 mm 2 mps 755 mmHg 97%
    05:00 -21°C° 0 mm 1 mps 755 mmHg 97%
    06:00 -20°C° 0 mm 1 mps 755 mmHg 97%
    07:00 -20°C° 0 mm 1 mps 755 mmHg 97%
    08:00 -20°C° 0 mm 1 mps 755 mmHg 97%
    09:00 -19°C° 0 mm 1 mps 755 mmHg 93%
    10:00 -17°C° 0 mm 1 mps 754 mmHg 89%
    11:00 -15°C° 0 mm 1 mps 754 mmHg 85%
    12:00 -14°C° 0 mm 1 mps 754 mmHg 83%
    13:00 -14°C° 0 mm 1 mps 754 mmHg 82%
    14:00 -15°C° 0 mm 2 mps 754 mmHg 80%
    15:00 -13°C° 0 mm 1 mps 754 mmHg 83%
    16:00 -14°C° 0 mm 1 mps 754 mmHg 86%
    17:00 -14°C° 0 mm 1 mps 754 mmHg 88%
    18:00 -15°C° 0 mm 1 mps 754 mmHg 90%
    19:00 -16°C° 0 mm 1 mps 754 mmHg 92%
    20:00 -19°C° 0 mm 2 mps 754 mmHg 94%
    21:00 -17°C° 0 mm 1 mps 754 mmHg 95%
    22:00 -18°C° 0 mm 1 mps 754 mmHg 96%
    23:00 -18°C° 0 mm 1 mps 754 mmHg 96%

    27 Febrero, Martes

    Tiempo Temperatura Precipitaciones Viento Presión Humedad
    00:00 -19°C° 0 mm 1 mps 754 mmHg 97%
    01:00 -19°C° 0 mm 1 mps 754 mmHg 97%
    02:00 -20°C° 0 mm 1 mps 755 mmHg 97%
    03:00 -20°C° 0 mm 1 mps 755 mmHg 97%
    04:00 -20°C° 0 mm 1 mps 755 mmHg 97%
    05:00 -20°C° 0 mm 1 mps 755 mmHg 98%
    06:00 -20°C° 0 mm 1 mps 755 mmHg 97%
    07:00 -20°C° 0 mm 1 mps 755 mmHg 97%
    08:00 -20°C° 0 mm 1 mps 756 mmHg 96%
    09:00 -21°C° 0 mm 2 mps 756 mmHg 93%
    10:00 -20°C° 0 mm 2 mps 756 mmHg 90%
    11:00 -18°C° 0 mm 2 mps 756 mmHg 87%
    12:00 -18°C° 0 mm 2 mps 756 mmHg 85%
    13:00 -18°C° 0 mm 3 mps 757 mmHg 83%
    14:00 -17°C° 0 mm 3 mps 757 mmHg 81%
    15:00 -17°C° 0 mm 3 mps 757 mmHg 83%
    16:00 -17°C° 0 mm 2 mps 757 mmHg 85%
    17:00 -18°C° 0 mm 2 mps 757 mmHg 87%
    18:00 -19°C° 0 mm 3 mps 757 mmHg 89%
    19:00 -21°C° 0 mm 3 mps 758 mmHg 90%
    20:00 -22°C° 0 mm 3 mps 758 mmHg 92%
    21:00 -22°C° 0 mm 3 mps 758 mmHg 92%
    22:00 -22°C° 0 mm 3 mps 758 mmHg 92%
    23:00 -23°C° 0 mm 4 mps 758 mmHg 92%
    Mostrar más